Tracking 17147 objects as of 4-July-2015
HD Live streaming from Space Station

IRIDIUM 54

Track IRIDIUM 54 now!
10-day predictions
IRIDIUM 54 is classified as:


NORAD ID: 25171
Int'l Code: 1998-010C
Perigee: 783.2 km
Apogee: 786.4 km
Inclination: 86.4 °
Period: 100.4 minutes
Semi major axis: 7155 km
RCS: 3.5028 m2 (large)
Launch date: February 18, 1998
Source: United States (US)
Your satellite tracking list
Your tracking list is empty





NASA's NSSDC Master Catalog

Two Line Element Set (TLE):
1 25171U 98010C   15184.51869107  .00000262  00000-0  86580-4 0  9991
2 25171 086.3977 289.0913 0002251 093.1873 266.9580 14.34218924909496

Source of the keplerian elements: AFSPC

N2YO: 224